Regional Weather Roundup
Issued by NWS

Home | Current Version | Previous Version | Graphics & Text | Print | Product List | Glossary On
Versions: 1 2 3 4 5 6 7 8 9 10 11 12 13 14 15 16 17 18 19 20 21 22 23 24 25 26 27 28 29 30 31 32 33 34 35 36 37 38 39 40 41 42 43 44 45 46 47 48 49 50
702
ASUS43 KIND 220600
RWRIN

WEATHER ROUNDUP FOR INDIANA
NATIONAL WEATHER SERVICE INDIANAPOLIS IN
200 AM EDT FRI SEP 22 2017

NOTE: "FAIR" INDICATES FEW OR NO CLOUDS BELOW 12,000 FEET WITH NO
SIGNIFICANT WEATHER AND/OR OBSTRUCTIONS TO VISIBILITY.

* - STATION DOES NOT REPORT WEATHER SUCH AS PRECIPITATION OR FOG.

+ - STATION NOT QUALITY CONTROLLED BY THE NATIONAL WEATHER SERVICE.
    USE DATA WITH CAUTION...ESPECIALLY DEWPOINT AND RELATIVE
    HUMIDITY OBSERVATIONS.

INZ001>003-010>013-019-020-220700-
NORTHWEST INDIANA

CITY           SKY/WX    TMP DP  RH WIND       PRES   REMARKS

$$

LMZ046-743>745-220700-
SOUTHERN LAKE MICHIGAN

STATION/POSITION TIME  TEMP    WIND        PRES    WAVE
                       AIR SEA DIR/SP/G            HT
                 (UTC) (F)     (DEG/KT/KT) (MB)    (FT)
BURNS HARBOR     0540   80     170/  6/ 10 1017.3S
MICHIGAN CITY    0530   77     130/  7/  8   N/A
5NW MICH CITY    0550   74 70  150/  6/  8   N/A     0

$$

INZ004-005-014>016-021>024-220700-
NORTH CENTRAL INDIANA

CITY           SKY/WX    TMP DP  RH WIND       PRES   REMARKS
GOSHEN         CLEAR     69  65  86 CALM      30.07S FOG
6HR MIN TEMP:  68; 6HR MAX TEMP:  81;

SOUTH BEND     CLEAR     74  72  93 SE3       30.07S
6HR MIN TEMP:  71; 6HR MAX TEMP:  83;


$$

INZ006>009-017-018-025>027-220700-
NORTHEAST INDIANA

CITY           SKY/WX    TMP DP  RH WIND       PRES   REMARKS
FORT WAYNE     PTCLDY    69  66  90 CALM      30.08S
6HR MIN TEMP:  69; 6HR MAX TEMP:  81;

KENDALLVILLE + CLEAR     68  66  93 CALM      30.09S

$$

INZ028-029-035-036-043>045-051>053-220700-
WEST CENTRAL INDIANA

CITY           SKY/WX    TMP DP  RH WIND       PRES   REMARKS
LAFAYETTE      CLEAR     69  68  96 CALM      30.05S
6HR MIN TEMP:  69; 6HR MAX TEMP:  79;

TERRE HAUTE    PTCLDY    70  67  90 CALM      30.06R
6HR MIN TEMP:  69; 6HR MAX TEMP:  82;


$$

INZ030>032-037>040-046>048-054>057-064-065-220700-
CENTRAL INDIANA

CITY           SKY/WX    TMP DP  RH WIND       PRES   REMARKS
INDIANAPOLIS   PTCLDY    75  68  78 S3        30.07S
6HR MIN TEMP:  75; 6HR MAX TEMP:  84;

-EAGLE CREEK   CLEAR     72  70  93 CALM      30.07R
6HR MIN TEMP:  72; 6HR MAX TEMP:  84;

KOKOMO +       CLEAR     69  67  93 CALM      30.08S
6HR MIN TEMP:  69; 6HR MAX TEMP:  81;

MT COMFORT *+  CLEAR     66  66 100 CALM      30.08S
SHELBYVILLE    CLEAR     69  65  86 CALM      30.07R
6HR MIN TEMP:  69; 6HR MAX TEMP:  81;


$$

INZ033-034-041-042-049-050-058-059-220700-
EAST CENTRAL INDIANA

CITY           SKY/WX    TMP DP  RH WIND       PRES   REMARKS
MUNCIE         CLEAR     71  67  87 S3        30.08R
6HR MIN TEMP:  70; 6HR MAX TEMP:  78;

RICHMOND +     PTCLDY    68  68 100 SE3       30.11S FOG

$$

INZ060-061-067>069-081>083-085>088-220700-
SOUTHWEST INDIANA

CITY           SKY/WX    TMP DP  RH WIND       PRES   REMARKS
EVANSVILLE     CLEAR     72  70  93 CALM      30.05S
6HR MIN TEMP:  72; 6HR MAX TEMP:  83;

HUNTINGBURG +  CLEAR     71  70  96 SE3       30.06
6HR MIN TEMP:  71; 6HR MAX TEMP:  82; 6HR PCP: TRACE;


$$

INZ062-063-066-070>080-084-089>092-220700-
SOUTH CENTRAL AND SOUTHEAST INDIANA

CITY           SKY/WX    TMP DP  RH WIND       PRES   REMARKS
BLOOMINGTON    CLEAR     69  65  86 CALM      30.07S
6HR MIN TEMP:  68; 6HR MAX TEMP:  80;

MADISON *+     CLEAR     68  66  94 CALM      30.10S
SEYMOUR +      CLEAR     70  68  94 CALM      30.07R

$$





USA.gov is the U.S. government's official web portal to all federal, state and local government web resources and services.